This is the latest recevied weather packets stored in our database for station/object EA7URS-13. If no packets are shown the sender has not sent any weather packets the latest 10 day(s).
| Time | Temp. | Humidity | Pressure | Rain* | Wind** | Luminosity | Snow |
|---|---|---|---|---|---|---|---|
| 1788274481 | 33.89° C | 33% | 1008.7 hPa | 0 mm | - | 447 W/m² | - |
| 1788274180 | 33.89° C | 33% | 1008.7 hPa | 0 mm | - | 447 W/m² | - |
| 1788273879 | 33.33° C | 35% | 1008.7 hPa | 0 mm | - | 472 W/m² | - |
| 1788273578 | 33.33° C | 35% | 1008.7 hPa | 0 mm | - | 472 W/m² | - |
| 1788273276 | 33.33° C | 34% | 1008.8 hPa | 0 mm | - | 496 W/m² | - |
| 1788272975 | 33.33° C | 34% | 1008.8 hPa | 0 mm | - | 496 W/m² | - |
| 1788272674 | 33.33° C | 33% | 1008.9 hPa | 0 mm | - | 517 W/m² | - |
| 1788272373 | 33.33° C | 33% | 1008.9 hPa | 0 mm | - | 517 W/m² | - |
| 1788272072 | 33.33° C | 35% | 1008.9 hPa | 0 mm | - | 310 W/m² | - |
| 1788271771 | 33.33° C | 35% | 1008.9 hPa | 0 mm | - | 310 W/m² | - |
| 1788271470 | 33.33° C | 34% | 1009.1 hPa | 0 mm | - | 557 W/m² | - |
| 1788271169 | 33.33° C | 34% | 1009.1 hPa | 0 mm | - | 557 W/m² | - |
| 1788270868 | 33.33° C | 33% | 1009.3 hPa | 0 mm | - | 572 W/m² | - |
| 1788270567 | 33.33° C | 33% | 1009.3 hPa | 0 mm | - | 572 W/m² | - |
| 1788270266 | 33.33° C | 32% | 1009 hPa | 0 mm | - | 590 W/m² | - |
| 1788269965 | 33.33° C | 32% | 1009 hPa | 0 mm | - | 590 W/m² | - |
| 1788269664 | 33.33° C | 31% | 1009.2 hPa | 0 mm | - | 601 W/m² | - |
| 1788269363 | 33.33° C | 31% | 1009.2 hPa | 0 mm | - | 601 W/m² | - |
| 1788269062 | 33.33° C | 32% | 1009.4 hPa | 0 mm | - | 436 W/m² | - |
| 1788268761 | 33.33° C | 32% | 1009.4 hPa | 0 mm | - | 436 W/m² | - |
| 1788268459 | 32.78° C | 31% | 1009.5 hPa | 0 mm | - | 625 W/m² | - |
| 1788268161 | 32.78° C | 31% | 1009.5 hPa | 0 mm | - | 625 W/m² | - |
| 1788267857 | 33.33° C | 31% | 1009.6 hPa | 0 mm | - | 637 W/m² | - |
| 1788267555 | 33.33° C | 31% | 1009.6 hPa | 0 mm | - | 637 W/m² | - |
| 1788267255 | 31.67° C | 32% | 1009.7 hPa | 0 mm | - | 642 W/m² | - |
* Rain latest hour (hover to see other rain measurements)
** Current wind speed in m/s (hover to see current wind gust speed)